Centralia, IL

7:33 AM CDT on March 25, 2017 (GMT -0500)
Centralia Municipal

Weather History for KENL - January, 2014

Change the Weather History Date:

Thursday, January 30, 2014

  Actual Average (KSLO) Record (KSLO)
Temperature  
Mean Temperature 30 °F -  
Max Temperature 39 °F 39 °F 63 °F (2016)
Min Temperature 20 °F 22 °F -7 °F (1966)
Degree Days  
Heating Degree Days 36    
Moisture  
Dew Point 9 °F    
Average Humidity 42    
Maximum Humidity 57    
Minimum Humidity 27    
Precipitation  
Precipitation 0.00 in - - ()
Sea Level Pressure  
Sea Level Pressure 29.99 in    
Wind  
Wind Speed 15 mph (South)    
Max Wind Speed 32 mph    
Max Gust Speed 40 mph    
Visibility 10 miles    
Events      
Averages and records for this station are not official NWS values.
T = Trace of Precipitation, MM = Missing Value Source: NWS Daily Summary

Daily Weather History Graph

Daily Weather History Graph

Search for Another Location

Airport or City:

Trip Planner

Search our weather history database for the weather conditions in past years. The results will help you decide how hot, cold, wet, or windy it might be!

Date:

Astronomy

Jan. 30, 2014 Rise Set
Actual Time 7:03 AM CST 5:16 PM CST
Civil Twilight 6:35 AM CST 5:44 PM CST
Nautical Twilight 6:03 AM CST 6:16 PM CST
Astronomical Twilight 5:32 AM CST 6:47 PM CST
Moon 6:29 AM CST (1/30) 5:27 PM CST (1/30)
Length of Visible Light 11h 08m
Length of Day
10h 12m
Waning Crescent, 0% of the Moon is Illuminated
Jan 30
Waning Crescent
Jan 30
New
Feb 6
First Quarter
Feb 14
Full
Feb 22
Last Quarter

Hourly Weather History & Observations

Time (CST) Temp. Windchill Dew Point Humidity Pressure Visibility Wind Dir Wind Speed Gust Speed Precip Events Conditions
12:15 AM 21.0 °F 8.6 °F 6.4 °F 53% 30.17 in 10.0 mi South 12.7 mph - N/A   Clear
12:35 AM 20.8 °F 8.4 °F 6.4 °F 54% 30.16 in 10.0 mi SSE 12.7 mph - N/A   Clear
12:55 AM 20.7 °F 8.8 °F 6.4 °F 54% 30.16 in 10.0 mi South 11.5 mph - N/A   Clear
1:15 AM 20.3 °F 7.7 °F 6.8 °F 56% 30.14 in 10.0 mi SSE 12.7 mph - N/A   Clear
1:35 AM 20.5 °F 7.4 °F 6.8 °F 56% 30.14 in 10.0 mi South 13.8 mph - N/A   Clear
1:55 AM 20.7 °F 7.6 °F 6.8 °F 55% 30.13 in 10.0 mi SSE 13.8 mph - N/A   Clear
2:15 AM 21.0 °F 7.6 °F 6.8 °F 54% 30.13 in 10.0 mi South 15.0 mph 19.6 mph N/A   Clear
2:35 AM 21.4 °F 8.0 °F 6.6 °F 53% 30.12 in 10.0 mi South 15.0 mph - N/A   Clear
2:55 AM 21.6 °F 9.3 °F 6.8 °F 53% 30.12 in 10.0 mi South 12.7 mph - N/A   Clear
3:15 AM 21.2 °F 8.9 °F 6.8 °F 54% 30.11 in 10.0 mi SSE 12.7 mph - N/A   Clear
3:35 AM 20.7 °F 8.2 °F 7.2 °F 56% 30.10 in 10.0 mi SSE 12.7 mph - N/A   Clear
3:55 AM 20.5 °F 9.2 °F 7.2 °F 56% 30.10 in 10.0 mi SSE 10.4 mph - N/A   Clear
4:15 AM 20.3 °F 7.7 °F 7.2 °F 57% 30.10 in 10.0 mi SSE 12.7 mph - N/A   Clear
4:35 AM 20.7 °F 8.2 °F 7.3 °F 56% 30.10 in 10.0 mi SSE 12.7 mph - N/A   Clear
4:55 AM 20.7 °F 8.8 °F 7.2 °F 56% 30.09 in 10.0 mi SSE 11.5 mph - N/A   Clear
5:15 AM 20.7 °F 8.2 °F 7.5 °F 57% 30.09 in 10.0 mi SSE 12.7 mph - N/A   Clear
5:35 AM 20.7 °F 8.8 °F 7.3 °F 56% 30.08 in 10.0 mi SSE 11.5 mph - N/A   Clear
5:55 AM 21.0 °F 9.3 °F 7.2 °F 55% 30.07 in 10.0 mi SSE 11.5 mph 18.4 mph N/A   Clear
6:15 AM 21.0 °F 9.3 °F 7.5 °F 56% 30.09 in 10.0 mi SSE 11.5 mph - N/A   Clear
6:35 AM 21.2 °F 8.9 °F 7.7 °F 56% 30.10 in 10.0 mi South 12.7 mph 16.1 mph N/A   Clear
6:55 AM 21.4 °F 8.5 °F 7.9 °F 56% 30.08 in 10.0 mi SSE 13.8 mph - N/A   Clear
7:15 AM 21.9 °F 8.7 °F 7.7 °F 54% 30.04 in 10.0 mi SSE 15.0 mph - N/A   Clear
7:35 AM 22.6 °F 9.6 °F 8.2 °F 54% 30.05 in 10.0 mi South 15.0 mph 20.7 mph N/A   Clear
7:55 AM 23.4 °F 10.6 °F 8.6 °F 53% 30.05 in 10.0 mi SSE 15.0 mph 21.9 mph N/A   Clear
8:15 AM 24.1 °F 11.5 °F 8.6 °F 52% 30.05 in 10.0 mi South 15.0 mph 18.4 mph N/A   Clear
8:35 AM 24.8 °F 11.9 °F 8.8 °F 51% 30.03 in 10.0 mi South 16.1 mph 20.7 mph N/A   Clear
8:55 AM 25.7 °F 12.3 °F 8.8 °F 49% 30.01 in 10.0 mi SSE 18.4 mph 23.0 mph N/A   Clear
9:15 AM 27.7 °F 16.6 °F 9.7 °F 47% 30.02 in 10.0 mi South 13.8 mph 23.0 mph N/A   Clear
9:35 AM 28.8 °F 16.2 °F 8.8 °F 43% 30.00 in 10.0 mi South 18.4 mph 26.5 mph N/A   Clear
9:55 AM 31.3 °F 18.9 °F 9.0 °F 39% 29.99 in 10.0 mi South 20.7 mph 28.8 mph N/A   Clear
10:15 AM 31.8 °F 19.0 °F 9.0 °F 38% 29.99 in 10.0 mi South 23.0 mph 28.8 mph N/A   Clear
10:35 AM 33.8 °F 20.8 °F 9.5 °F 36% 29.98 in 10.0 mi South 26.5 mph 34.5 mph N/A   Clear
10:55 AM 35.1 °F 22.5 °F 9.0 °F 34% 29.98 in 10.0 mi South 26.5 mph 35.7 mph N/A   Clear
11:15 AM 36.0 °F 23.2 °F 9.0 °F 33% 29.96 in 10.0 mi South 28.8 mph 39.1 mph N/A   Clear
11:35 AM 35.2 °F 24.1 °F 9.1 °F 34% 29.94 in 10.0 mi South 20.7 mph 36.8 mph N/A   Clear
11:55 AM 36.5 °F 24.2 °F 8.8 °F 32% 29.91 in 10.0 mi South 27.6 mph 40.3 mph N/A   Clear
12:15 PM 38.8 °F 26.5 °F 8.8 °F 29% 29.89 in 10.0 mi South 32.2 mph 40.3 mph N/A   Clear
12:35 PM 38.3 °F 27.6 °F 8.6 °F 29% 29.88 in 10.0 mi South 23.0 mph 34.5 mph N/A   Clear
12:55 PM 39.0 °F 27.4 °F 8.8 °F 29% 29.88 in 10.0 mi South 28.8 mph 34.5 mph N/A   Clear
1:15 PM 39.4 °F 29.2 °F 8.6 °F 28% 29.87 in 10.0 mi South 21.9 mph 34.5 mph N/A   Clear
1:35 PM 39.2 °F 27.6 °F 8.2 °F 28% 29.86 in 10.0 mi South 28.8 mph 39.1 mph N/A   Clear
1:55 PM 39.2 °F 28.5 °F 9.1 °F 29% 29.84 in 10.0 mi South 24.2 mph 36.8 mph N/A   Clear
2:15 PM 39.6 °F 29.2 °F 9.1 °F 29% 29.84 in 10.0 mi South 23.0 mph 33.4 mph N/A   Clear
2:35 PM 39.4 °F 28.7 °F 7.9 °F 27% 29.84 in 10.0 mi SSW 24.2 mph 36.8 mph N/A   Clear
2:55 PM 38.7 °F 28.3 °F 8.1 °F 28% 29.84 in 10.0 mi South 21.9 mph 40.3 mph N/A   Clear
3:15 PM 38.8 °F 28.8 °F 9.1 °F 29% 29.86 in 10.0 mi South 20.7 mph 29.9 mph N/A   Clear
3:35 PM 38.1 °F 28.1 °F 9.1 °F 30% 29.87 in 10.0 mi SSW 19.6 mph 29.9 mph N/A   Clear
3:55 PM 38.3 °F 29.0 °F 8.6 °F 29% 29.88 in 10.0 mi SSW 17.3 mph 23.0 mph N/A   Clear
4:15 PM 37.9 °F 27.9 °F 8.2 °F 29% 29.90 in 10.0 mi SSW 19.6 mph 32.2 mph N/A   Clear
4:35 PM 37.4 °F 27.2 °F 9.0 °F 31% 29.90 in 10.0 mi SSW 19.6 mph 24.2 mph N/A   Clear
4:55 PM 36.9 °F 27.5 °F 9.5 °F 32% 29.90 in 10.0 mi SSW 16.1 mph 24.2 mph N/A   Clear
5:15 PM 36.5 °F 27.8 °F 10.4 °F 34% 29.90 in 10.0 mi South 13.8 mph 19.6 mph N/A   Clear
5:35 PM 36.1 °F 26.2 °F 10.6 °F 35% 29.91 in 10.0 mi South 17.3 mph 20.7 mph N/A   Clear
5:55 PM 36.1 °F 26.5 °F 10.6 °F 35% 29.92 in 10.0 mi South 16.1 mph 21.9 mph N/A   Clear
6:15 PM 35.8 °F 26.9 °F 10.9 °F 36% 29.93 in 10.0 mi South 13.8 mph 20.7 mph N/A   Clear
6:35 PM 36.0 °F 27.1 °F 10.9 °F 36% 29.93 in 10.0 mi South 13.8 mph - N/A   Clear
6:55 PM 36.1 °F 27.3 °F 10.6 °F 35% 29.93 in 10.0 mi South 13.8 mph - N/A   Clear
7:15 PM 36.5 °F 27.8 °F 10.6 °F 34% 29.94 in 10.0 mi South 13.8 mph - N/A   Clear
7:35 PM 36.0 °F 27.5 °F 11.1 °F 36% 29.94 in 10.0 mi South 12.7 mph - N/A   Clear
7:55 PM 36.5 °F 27.8 °F 10.8 °F 35% 29.95 in 10.0 mi South 13.8 mph 19.6 mph N/A   Scattered Clouds
8:15 PM 36.5 °F 27.4 °F 10.9 °F 35% 29.96 in 10.0 mi South 15.0 mph - N/A   Scattered Clouds
8:35 PM 36.5 °F 27.8 °F 11.5 °F 36% 29.96 in 10.0 mi SSW 13.8 mph 18.4 mph N/A   Mostly Cloudy
8:55 PM 36.5 °F 27.0 °F 11.8 °F 36% 29.96 in 10.0 mi SSW 16.1 mph 20.7 mph N/A   Mostly Cloudy
9:15 PM 36.5 °F 28.2 °F 12.2 °F 37% 29.97 in 10.0 mi SSW 12.7 mph 18.4 mph N/A   Scattered Clouds
9:35 PM 36.5 °F 28.7 °F 12.7 °F 38% 29.97 in 10.0 mi SSW 11.5 mph 17.3 mph N/A   Clear
9:55 PM 36.5 °F 29.2 °F 13.1 °F 38% 29.98 in 10.0 mi SSW 10.4 mph - N/A   Clear
10:15 PM 36.5 °F 28.7 °F 13.1 °F 38% 29.97 in 10.0 mi SSW 11.5 mph 18.4 mph N/A   Clear
10:35 PM 36.5 °F 28.7 °F 13.8 °F 39% 29.97 in 10.0 mi SSW 11.5 mph - N/A   Scattered Clouds
10:55 PM 36.5 °F 28.2 °F 14.2 °F 40% 29.97 in 10.0 mi SSW 12.7 mph - N/A   Mostly Cloudy
11:15 PM 36.7 °F 29.4 °F 14.7 °F 41% 29.98 in 10.0 mi SSW 10.4 mph - N/A   Overcast
11:35 PM 36.7 °F 29.4 °F 14.9 °F 41% 29.98 in 10.0 mi SSW 10.4 mph - N/A   Overcast
11:55 PM 36.5 °F 29.7 °F 15.1 °F 42% 29.98 in 10.0 mi SSW 9.2 mph - N/A   Overcast